Location: Kalberh�ni
(46.4610°N, 7.2453°E)
Time: 01:15:21
(UTC+00:00)

Cosmos 2228 - Pass Details

Date: 20 June 2021
Orbit: 588 x 618 km, 82.5° (Epoch: 25 July)

Event Time Altitude Azimuth Distance (km) Brightness Sun altitude
Rises 22:05:27 0° 346° (NNW) 2,904 8.2 -17.4°
Reaches altitude 10° 22:07:44 10° 342° (NNW) 1,994 7.0 -17.5°
Maximum altitude 22:12:02 54° 266° (W) 756 3.5 -17.7°
Enters shadow 22:14:03 29° 202° (SSW) 1,148 4.0 -17.9°
